• In Latvia
  • List of Countries
  • For 7 days
  • Water Temperature
  • Satellite Maps
  • Weather Map
  • Weather Widgets
  • user-avatar
    Login

    Hourly Weather Salta

    Today, 26 September, Tuesday

    Time Temperature Precipitation Wind Pressure Humidity
    00:00 +21°C° 0 mm 1 mps 653 mmHg 63%
    01:00 +21°C° 0 mm 1 mps 653 mmHg 64%
    02:00 +20°C° 0 mm 1 mps 652 mmHg 65%
    03:00 +20°C° 0 mm 1 mps 652 mmHg 66%
    04:00 +19°C° 0 mm 1 mps 652 mmHg 67%
    05:00 +19°C° 0 mm 1 mps 651 mmHg 67%
    06:00 +20°C° 0 mm 1 mps 652 mmHg 62%
    07:00 +22°C° 0 mm 1 mps 652 mmHg 57%
    08:00 +23°C° 0 mm 1 mps 653 mmHg 52%
    09:00 +25°C° 0 mm 2 mps 653 mmHg 47%
    10:00 +27°C° 0 mm 2 mps 653 mmHg 42%
    11:00 +28°C° 0 mm 3 mps 654 mmHg 37%
    12:00 +29°C° 0.3 mm 3 mps 653 mmHg 36%
    13:00 +29°C° 0.3 mm 3 mps 652 mmHg 36%
    14:00 +30°C° 0.3 mm 4 mps 651 mmHg 35%
    15:00 +30°C° 0.1 mm 4 mps 651 mmHg 38%
    16:00 +29°C° 0.1 mm 3 mps 650 mmHg 41%
    17:00 +28°C° 0.1 mm 3 mps 650 mmHg 44%
    18:00 +27°C° 0.8 mm 3 mps 650 mmHg 50%
    19:00 +25°C° 0.8 mm 2 mps 650 mmHg 56%
    20:00 +24°C° 0.8 mm 1 mps 650 mmHg 62%
    21:00 +23°C° 1.1 mm 1 mps 650 mmHg 63%
    22:00 +23°C° 1.1 mm 1 mps 651 mmHg 64%
    23:00 +22°C° 1.1 mm 1 mps 651 mmHg 66%

    Tomorrow, 27 September, Wednesday

    Time Temperature Precipitation Wind Pressure Humidity
    00:00 +22°C° 0.7 mm 1 mps 651 mmHg 66%
    01:00 +22°C° 0.7 mm 1 mps 650 mmHg 66%
    02:00 +21°C° 0.7 mm 1 mps 650 mmHg 67%
    03:00 +21°C° 0.4 mm 1 mps 650 mmHg 67%
    04:00 +21°C° 0.4 mm 1 mps 650 mmHg 67%
    05:00 +19°C° 0.4 mm 2 mps 650 mmHg 66%
    06:00 +20°C° 0.2 mm 2 mps 651 mmHg 64%
    07:00 +21°C° 0.2 mm 2 mps 652 mmHg 63%
    08:00 +23°C° 0.2 mm 2 mps 653 mmHg 61%
    09:00 +24°C° 0.2 mm 2 mps 653 mmHg 59%
    10:00 +24°C° 0.2 mm 3 mps 653 mmHg 57%
    11:00 +25°C° 0.2 mm 3 mps 654 mmHg 55%
    12:00 +25°C° 0.8 mm 3 mps 653 mmHg 57%
    13:00 +25°C° 0.8 mm 3 mps 652 mmHg 59%
    14:00 +23°C° 0.8 mm 4 mps 651 mmHg 61%
    15:00 +24°C° 1 mm 3 mps 651 mmHg 64%
    16:00 +22°C° 1 mm 3 mps 650 mmHg 68%
    17:00 +21°C° 1 mm 3 mps 650 mmHg 72%
    18:00 +20°C° 0.3 mm 3 mps 650 mmHg 75%
    19:00 +19°C° 0.3 mm 2 mps 651 mmHg 78%
    20:00 +19°C° 0.3 mm 2 mps 651 mmHg 81%
    21:00 +18°C° 0.1 mm 2 mps 651 mmHg 82%
    22:00 +18°C° 0.1 mm 2 mps 652 mmHg 83%
    23:00 +19°C° 0.1 mm 1 mps 652 mmHg 84%

    Day after tomorrow, 28 September, Thursday

    Time Temperature Precipitation Wind Pressure Humidity
    00:00 +18°C° 0 mm 1 mps 652 mmHg 84%
    01:00 +18°C° 0 mm 1 mps 651 mmHg 85%
    02:00 +18°C° 0 mm 1 mps 651 mmHg 85%
    03:00 +18°C° 0 mm 1 mps 651 mmHg 85%
    04:00 +18°C° 0 mm 1 mps 651 mmHg 85%
    05:00 +18°C° 0 mm 1 mps 651 mmHg 85%
    06:00 +18°C° 0 mm 1 mps 651 mmHg 81%
    07:00 +19°C° 0 mm 1 mps 652 mmHg 78%
    08:00 +19°C° 0 mm 1 mps 652 mmHg 74%
    09:00 +19°C° 0 mm 2 mps 652 mmHg 70%
    10:00 +20°C° 0 mm 2 mps 652 mmHg 66%
    11:00 +21°C° 0 mm 2 mps 652 mmHg 62%
    12:00 +21°C° 0.1 mm 2 mps 651 mmHg 62%
    13:00 +21°C° 0.1 mm 2 mps 651 mmHg 63%
    14:00 +21°C° 0.1 mm 2 mps 650 mmHg 63%
    15:00 +21°C° 0.1 mm 2 mps 649 mmHg 65%
    16:00 +21°C° 0.1 mm 2 mps 649 mmHg 67%
    17:00 +20°C° 0.1 mm 2 mps 649 mmHg 69%
    18:00 +20°C° 0.2 mm 2 mps 649 mmHg 73%
    19:00 +19°C° 0.2 mm 2 mps 650 mmHg 76%
    20:00 +19°C° 0.2 mm 1 mps 650 mmHg 80%
    21:00 +19°C° 0.1 mm 1 mps 650 mmHg 81%
    22:00 +19°C° 0.1 mm 1 mps 650 mmHg 82%
    23:00 +16°C° 0.1 mm 0 mps 650 mmHg 83%

    29 September, Friday

    Time Temperature Precipitation Wind Pressure Humidity
    00:00 +18°C° 0 mm 1 mps 650 mmHg 81%
    01:00 +18°C° 0 mm 1 mps 650 mmHg 80%
    02:00 +18°C° 0 mm 1 mps 650 mmHg 79%
    03:00 +18°C° 0 mm 1 mps 650 mmHg 77%
    04:00 +16°C° 0 mm 1 mps 650 mmHg 76%
    05:00 +16°C° 0 mm 1 mps 650 mmHg 75%
    06:00 +18°C° 0 mm 1 mps 651 mmHg 70%
    07:00 +19°C° 0 mm 1 mps 652 mmHg 64%
    08:00 +20°C° 0 mm 1 mps 652 mmHg 59%
    09:00 +20°C° 0 mm 2 mps 652 mmHg 56%
    10:00 +21°C° 0 mm 2 mps 652 mmHg 53%
    11:00 +24°C° 0 mm 2 mps 652 mmHg 51%
    12:00 +24°C° 0.1 mm 2 mps 652 mmHg 51%
    13:00 +24°C° 0.1 mm 2 mps 651 mmHg 51%
    14:00 +25°C° 0.1 mm 3 mps 651 mmHg 51%
    15:00 +25°C° 0.1 mm 3 mps 650 mmHg 51%
    16:00 +24°C° 0.1 mm 2 mps 650 mmHg 52%
    17:00 +24°C° 0.1 mm 2 mps 649 mmHg 53%
    18:00 +23°C° 0 mm 2 mps 650 mmHg 59%
    19:00 +21°C° 0 mm 1 mps 650 mmHg 65%
    20:00 +20°C° 0 mm 1 mps 650 mmHg 71%
    21:00 +19°C° 0 mm 1 mps 650 mmHg 72%
    22:00 +19°C° 0 mm 1 mps 650 mmHg 73%
    23:00 +18°C° 0 mm 1 mps 650 mmHg 73%

    30 September, Saturday

    Time Temperature Precipitation Wind Pressure Humidity
    00:00 +18°C° 0 mm 1 mps 650 mmHg 72%
    01:00 +18°C° 0 mm 1 mps 649 mmHg 70%
    02:00 +18°C° 0 mm 1 mps 649 mmHg 69%
    03:00 +18°C° 0 mm 1 mps 649 mmHg 66%
    04:00 +18°C° 0 mm 1 mps 649 mmHg 63%
    05:00 +17°C° 0 mm 2 mps 649 mmHg 60%
    06:00 +18°C° 0 mm 2 mps 650 mmHg 54%
    07:00 +20°C° 0 mm 2 mps 650 mmHg 49%
    08:00 +23°C° 0 mm 2 mps 651 mmHg 44%
    09:00 +25°C° 0 mm 2 mps 651 mmHg 37%
    10:00 +27°C° 0 mm 2 mps 651 mmHg 30%
    11:00 +30°C° 0 mm 3 mps 651 mmHg 23%
    12:00 +31°C° 0 mm 3 mps 650 mmHg 21%
    13:00 +33°C° 0 mm 4 mps 649 mmHg 18%
    14:00 +34°C° 0 mm 4 mps 648 mmHg 16%
    15:00 +33°C° 0 mm 5 mps 647 mmHg 16%
    16:00 +33°C° 0 mm 5 mps 647 mmHg 16%
    17:00 +32°C° 0 mm 5 mps 646 mmHg 17%
    18:00 +29°C° 0 mm 4 mps 646 mmHg 22%
    19:00 +26°C° 0 mm 3 mps 646 mmHg 27%
    20:00 +22°C° 0 mm 3 mps 645 mmHg 33%
    21:00 +23°C° 0 mm 2 mps 645 mmHg 35%
    22:00 +21°C° 0 mm 2 mps 644 mmHg 36%
    23:00 +20°C° 0 mm 2 mps 644 mmHg 38%

    1 October, Sunday

    Time Temperature Precipitation Wind Pressure Humidity
    00:00 +20°C° 0 mm 2 mps 643 mmHg 37%
    01:00 +19°C° 0 mm 3 mps 642 mmHg 37%
    02:00 +19°C° 0 mm 3 mps 641 mmHg 36%
    03:00 +19°C° 0 mm 3 mps 641 mmHg 33%
    04:00 +18°C° 0 mm 3 mps 641 mmHg 30%
    05:00 +18°C° 0 mm 3 mps 641 mmHg 27%
    06:00 +19°C° 0 mm 4 mps 642 mmHg 24%
    07:00 +21°C° 0 mm 4 mps 643 mmHg 21%
    08:00 +22°C° 0 mm 5 mps 645 mmHg 18%
    09:00 +23°C° 0 mm 6 mps 645 mmHg 20%
    10:00 +23°C° 0 mm 6 mps 645 mmHg 21%
    11:00 +24°C° 0 mm 7 mps 645 mmHg 23%
    12:00 +24°C° 0 mm 7 mps 644 mmHg 23%
    13:00 +24°C° 0 mm 7 mps 644 mmHg 23%
    14:00 +24°C° 0 mm 7 mps 644 mmHg 23%
    15:00 +23°C° 0 mm 7 mps 643 mmHg 24%
    16:00 +22°C° 0 mm 6 mps 643 mmHg 26%
    17:00 +21°C° 0 mm 6 mps 643 mmHg 27%
    18:00 +19°C° 0 mm 5 mps 643 mmHg 31%
    19:00 +18°C° 0 mm 4 mps 644 mmHg 35%
    20:00 +16°C° 0 mm 3 mps 644 mmHg 39%
    21:00 +15°C° 0 mm 2 mps 644 mmHg 41%
    22:00 +14°C° 0 mm 2 mps 644 mmHg 42%
    23:00 +14°C° 0 mm 1 mps 644 mmHg 44%
    Show more